Location: *
(10.4782°N, 67.2163°W)
Time: 23:02:37
(UTC+00:00)

Cosmos 2360 Rocket - Pass Details

Date: 23 May 2024
Orbit: 832 x 846 km, 71.0° (Epoch: 15 June)

Event Time Altitude Azimuth Distance (km) Brightness Sun altitude
Rises 08:57:54 0° 319° (NW) 3,393 5.2 -16.2°
Reaches altitude 10° 09:00:57 10° 303° (WNW) 2,457 4.3 -15.6°
Enters shadow 09:04:49 20° 259° (W) 1,831 3.4 -14.7°
